| time (UTC) | temp C | wind direction | speed KPH | gust KPH | rain 1hr cm | rain 24hr cm | rain mn cm | humidity % | barometer mb |
| 20260903040037 | 18 | 0.0 | 1.6 | 0.00 | 0.74 | 0.74 | 81 | 1018.8 | |
| 20260903033015 | 18 | 0.0 | 0.0 | 0.00 | 0.74 | 0.74 | 82 | 1017.9 | |
| 20260903030016 | 18 | 0.0 | 0.0 | 0.00 | 0.74 | 0.74 | 82 | 1017.7 | |
| 20260903023017 | 18 | 0.0 | 0.0 | 0.00 | 0.74 | 0.74 | 82 | 1018.5 | |
| 20260903020015 | 18 | 0.0 | 0.0 | 0.00 | 0.74 | 0.74 | 81 | 1019.3 | |
| 20260903013022 | 18 | 0.0 | 3.2 | 0.00 | 0.74 | 0.74 | 81 | 1019.1 | |
| 20260903010015 | 18 | 0.0 | 3.2 | 0.00 | 0.74 | 0.74 | 81 | 1019.1 | |
| 20260903003015 | 18 | 0.0 | 1.6 | 0.00 | 0.74 | 0.74 | 81 | 1019.0 | |
| 20260903000036 | 18 | 0.0 | 1.6 | 0.00 | 0.74 | 0.74 | 81 | 1019.1 | |
| 20260902233015 | 18 | 0.0 | 4.8 | 0.00 | 0.74 | 0.74 | 81 | 1018.7 | |
| 20260902230058 | 18 | 0.0 | 0.0 | 0.00 | 0.74 | 0.74 | 81 | 1019.0 | |
| 20260902223015 | 18 | 0.0 | 3.2 | 0.00 | 1.07 | 0.74 | 80 | 1019.3 | |
| 20260902220015 | 19 | 0.0 | 1.6 | 0.00 | 1.07 | 0.74 | 79 | 1020.0 | |
| 20260902213015 | 20 | 0.0 | 3.2 | 0.00 | 1.09 | 0.74 | 79 | 1019.7 | |
| 20260902210015 | 20 | 0.0 | 0.0 | 0.00 | 1.09 | 0.74 | 79 | 1019.8 | |
| 20260902203035 | 20 | 0.0 | 4.8 | 0.00 | 1.09 | 0.74 | 79 | 1019.8 | |
| 20260902200015 | 19 | 0.0 | 3.2 | 0.00 | 1.09 | 0.74 | 80 | 1019.6 | |
| 20260902193015 | 18 | 0.0 | 3.2 | 0.00 | 1.09 | 0.74 | 81 | 1020.1 | |
| 20260902190017 | 18 | 0.0 | 3.2 | 0.33 | 1.09 | 0.74 | 82 | 1020.1 | |
| 20260902183017 | 18 | 0.0 | 1.6 | 0.74 | 1.09 | 0.74 | 82 | 1020.3 | |
| 20260902180015 | 18 | 0.0 | 3.2 | 0.41 | 0.76 | 0.41 | 80 | 1021.3 | |
| 20260902173022 | 18 | 0.0 | 3.2 | 0.00 | 0.36 | 0.00 | 76 | 1021.2 | |
| 20260902170038 | 18 | 0.0 | 6.4 | 0.00 | 0.36 | 0.00 | 75 | 1020.8 | |
| 20260902163017 | 19 | 0.0 | 3.2 | 0.00 | 0.36 | 0.00 | 74 | 1021.1 | |
| 20260902160017 | 19 | 0.0 | 1.6 | 0.00 | 0.36 | 0.00 | 74 | 1020.7 | |
| 20260902153017 | 19 | 0.0 | 1.6 | 0.00 | 0.36 | 0.00 | 75 | 1020.8 | |
| 20260902150018 | 18 | 0.0 | 3.2 | 0.00 | 0.36 | 0.00 | 76 | 1021.1 | |
| 20260902143017 | 18 | 0.0 | 3.2 | 0.00 | 0.36 | 0.00 | 76 | 1021.2 | |
| 20260902140018 | 18 | 0.0 | 1.6 | 0.00 | 0.36 | 0.00 | 78 | 1021.0 | |
| 20260902133016 | 17 | 0.0 | 0.0 | 0.00 | 0.43 | 0.00 | 79 | 1021.1 | |
| 20260902130016 | 17 | 0.0 | 1.6 | 0.00 | 0.58 | 0.00 | 80 | 1020.7 | |
| 20260902123016 | 17 | 0.0 | 3.2 | 0.00 | 0.74 | 0.00 | 82 | 1020.7 | |
| 20260902120017 | 16 | 0.0 | 3.2 | 0.00 | 0.86 | 0.00 | 83 | 1020.5 | |
| 20260902113018 | 16 | 0.0 | 1.6 | 0.00 | 0.86 | 0.00 | 83 | 1020.7 | |
| 20260902110016 | 16 | 0.0 | 1.6 | 0.00 | 0.89 | 0.00 | 83 | 1020.8 | |
| 20260902103016 | 17 | 0.0 | 1.6 | 0.00 | 0.91 | 0.00 | 83 | 1020.5 | |
| 20260902100016 | 17 | 0.0 | 1.6 | 0.00 | 0.91 | 0.00 | 83 | 1020.2 | |
| 20260902093036 | 17 | 0.0 | 0.0 | 0.00 | 0.91 | 0.00 | 83 | 1019.9 | |
| 20260902090036 | 17 | 0.0 | 1.6 | 0.00 | 0.91 | 0.00 | 83 | 1019.7 | |
| 20260902083016 | 17 | 0.0 | 1.6 | 0.00 | 0.91 | 0.00 | 83 | 1019.5 | |
| 20260902080017 | 16 | 0.0 | 1.6 | 0.00 | 1.04 | 0.00 | 83 | 1019.4 | |
| 20260902073017 | 17 | 0.0 | 1.6 | 0.00 | 1.04 | 0.00 | 83 | 1019.3 | |
| 20260902070017 | 17 | 0.0 | 1.6 | 0.00 | 1.04 | 0.00 | 83 | 1019.5 | |
| 20260902063015 | 17 | 0.0 | 3.2 | 0.00 | 1.04 | 0.00 | 83 | 1019.6 | |
| 20260902060015 | 17 | 0.0 | 1.6 | 0.00 | 1.04 | 0.00 | 82 | 1019.5 | |
| 20260902053016 | 17 | 0.0 | 1.6 | 0.00 | 1.09 | 0.00 | 82 | 1019.3 | |
| 20260902050015 | 17 | 0.0 | 1.6 | 0.00 | 1.09 | 0.00 | 82 | 1019.4 | |
| 20260902043015 | 17 | 0.0 | 3.2 | 0.00 | 1.14 | 0.00 | 82 | 1019.0 |